User: anonymous   Login
Location: Unspecified
(0.0000°N, 0.0000°E)
Time: 10:59:45
(UTC+00:00)
Language:

KUIPER-00121 - Orbit

View from above orbital plane
View from above orbital plane
View from above satellite
View from above satellite

Ground track
Ground track

The orbit is defined by the following mean orbital elements,

1 65763U          26145.59617778 +.00000000 +00000-0 +72429-3 0 00005
2 65763  51.8579 349.4332 0006395 222.6091 137.4402 15.41930631    01
Epoch (UTC): 25 May 2026 14:18:29
Eccentricity: 0.0006395
inclination: 51.8579°
perigee height: 436 km
apogee height: 445 km
right ascension of ascending node: 349.4332°
argument of perigee: 222.6091°
revolutions per day: 15.41930631
mean anomaly at epoch: 137.4402°

The dashed part of the orbit path shows where the satellite is in the earth's shadow,  

DLR